星链-6215 (STARLINK-6215 )

导读

STARLINK-6215是美国SpaceX公司星链(Starlink)星座的成员卫星,于2023年7月16日发射升空。星链项目旨在构建全球低轨宽带卫星互联网,为全球用户提供高速互联网接入服务。该卫星采用量产化设计,搭载Ku/Ka波段通信载荷与氪工质霍尔推进器,具备自主避撞能力,运行在近地轨道,设计寿命5-7年,退役后将主动离轨再入大气层烧毁。

基本信息
目录编号:
57367
目录名称:
STARLINK-6215
国际标识:
2023-099AR
轨道中心:
EARTH
卫星名称:
星链-6215
卫星全名:
星链-6215 (STARLINK-6215 )
卫星状态:
在轨 (已飞行1146 天)
发射日期:
2023-07-16 UTC
国别 :
美国 (US)
星等 :
--
轨道信息
数据来源 国际轨道数据
星历时间: 2026-09-04T12:30:39+0800
4小时前
查看轨道信息
半长轴: 6861.192km
偏心率: 0.0001347
轨道倾角: 43.003°
近地点辐角 274.571°
升交点赤经 295.018°
平近点角 85.499°
近地点: 482.13km
远地点: 483.98km
周期: 94.267分钟
每日圈数: 15.275782
详细信息
固有亮度:
5
最大亮度:
2.5
卫星平台:
Starlink v1.5
覆盖范围:
全球
运营商:
太空探索技术公司
运营商所在国:
美国
制造商(研发单位):
太空探索技术公司
制造商所在国:
美国
使用方式:
暂无
卫星简介
星链(Starlink)计划是由太空探索技术公司(SpaceX)提出的一个巨型低轨卫星互联网星座项目,计划在2019年至2024年间在太空搭建由约1.2万颗卫星组成的“星链”网络,其中1584颗将部署在地球上空550千米处的近地轨道,并从2020年开始工作。该卫星仍在工作。
2D轨道图
3D轨道图
轨道高度分析图
轨道倾角分析图
轨道综合分析图
查看轨道综合分析图
交会数据列表
事件ID 空间交会对象 最接近时刻(TCA) 交会距离 交会风险概率(CRP) 交会风险指数(CRI) 操作
CDM_260905-100005-736706-784021
2026-09-05T
10:00:22+0000
0.649 km
远距离
4.436301E-5 中风险 0.68
CDM_260903-235005-323205-736721
2026-09-03T
23:50:02+0000
0.810 km
远距离
3.255552E-5 中风险 0.65
CDM_260904-213305-736706-358121
2026-09-04T
21:33:21+0000
0.974 km
远距离
1.902967E-5 中风险 0.61
CDM_260904-230705-736706-358122
2026-09-04T
23:07:31+0000
1.103 km
极远距离
1.238986E-5 中风险 0.57
CDM_260905-122705-736706-358121
2026-09-05T
12:27:49+0000
1.308 km
极远距离
6.877379E-6 低风险 0.52
CDM_260905-105305-736706-358121
2026-09-05T
10:53:39+0000
1.775 km
极远距离
2.639278E-6 低风险 0.43
CDM_260905-135505-736706-784021
2026-09-05T
13:55:45+0000
1.903 km
极远距离
1.426993E-6 低风险 0.38
CDM_260902-124905-694405-736722
2026-09-02T
12:49:45+0000
2.624 km
极远距离
1.32953E-6 低风险 0.37
CDM_260904-195905-736706-358121
2026-09-04T
19:59:12+0000
2.641 km
极远距离
1.109185E-6 低风险 0.36
CDM_260905-004105-736706-358122
2026-09-05T
00:41:40+0000
2.858 km
极远距离
9.938154E-7 极低风险 0.35